Погода в Редкино

Россия / Тверская область     56°38′59″N   36°17′40″E
темп.,
°C
ветер,
м/с
пор.,
м/с
влажн.,
%
обл.,
%
осадки,
мм/ч
давл.,
гПа
погр.,
м
22 января, сб
сб2200:00−7в2496100 1.2 998196
03:00−7в2497100 2.3 999160
06:00−8в2697100 0.4 1001137
09:00−9в379699 0.5 1004237
12:00−6в479496 0.2 1006465
15:00−5всв379599 0.5 1008504
18:00−7всв389695 0.2 1011246
21:00−7всв379599 0.6 1014295
23 января, вс
вс2300:00−9всв249775 0.1 101772
03:00−14св22100100 0.2 102031
06:00−15св2210090 0.1 102328
09:00−18ссв2210099 0.1 102612
12:00−11св129592 0.1 1029107
15:00−10с119559 0.1 103039
18:00−16ссв1110062 0.0 10349
21:00−18в0010088 0.0 10369
24 января, пн
пн2400:00−20юз1110098 0.0 10379
03:00−21сз1110098 0.0 10399
06:00−21юз1110098 0.0 10399
09:00−21ю1110090 0.0 10409
12:00−12ююз129575 0.0 103984
15:00−10ююз22955 0.0 103870
18:00−17ююз2210075 0.0 10379
21:00−18ю2210098 0.0 103619
25 января, вт
вт2500:00−18ю36100100 0.0 103462
03:00−18ююз2410095 0.0 103253
06:00−18ююз2610077 0.0 102985
09:00−17ююз399821 0.0 1027118
12:00−11ююз4119096 0.0 1024258
15:00−8ююз4128758 0.0 1021336
18:00−8ююз41194100 0.2 1020357
21:00−8юз3796100 1.1 1019264
26 января, ср
ср2600:00−7зюз2496100 1.1 1018172
03:00−8зсз1298100 1.5 101943
06:00−5сз269699 0.1 1019290
09:00−8ссз379699 0.2 1021226
12:00−10ссз369589 0.0 1022196
15:00−9ссз259413 0.1 1022234
18:00−16сз2210079 0.0 102322
21:00−19сз1110099 0.0 10239